[[{"header":{"parameterUnit":"m.s-1","parameterCategory":1,"la1":30.2991,"la2":30.254,"lo1":-89.0895,"lo2":-89.0444,"dy":0.0017,"dx":0.0017,"nx":28,"ny":28,"refTime":"2025-04-18T09:00:00:Z","depth":0,"parameterNumber":2,"parameterNumberName":"U-component_of_WINDS"},"data":[0,0,0,0,0,0,0,0,0,0,0,0,0,0,0,0,0,0,0,0,0,0,0,0,0,0,0,0,0,0,0,0,0,0,0,0,0,0,0,0,0,0,0,0,0,0,0,0,0,0,0,0,0,0,0,0,0,0,-4.6276,-4.6277,0,-4.6321,-4.6322,-4.6322,-4.6249,-4.6247,-4.6244,-4.6242,-4.6287,-4.6291,-4.6294,0,0,0,0,0,0,0,0,0,0,0,0,0,-4.6128,-4.6131,-4.6276,-4.6277,-4.6277,-4.6321,-4.6322,-4.6322,-4.625,-4.6246,-4.6243,-4.6241,-4.6286,-4.629,-4.6295,0,0,0,0,0,0,0,0,0,0,0,0,0,-4.6185,-4.6132,-4.6276,-4.6246,-4.6244,-4.6321,-4.6322,-4.6322,-4.625,-4.6246,-4.6243,-4.6239,-4.6285,-4.629,-4.6295,-4.6403,0,0,-4.6312,-4.6314,0,0,0,0,0,0,0,0,-4.6181,-4.619,-4.625,-4.6248,-4.6246,-4.6276,-4.6286,-4.6349,-4.6251,-4.6248,-4.6242,-4.6237,-4.6287,-4.6291,-4.6308,-4.6405,-4.6407,-4.6312,-4.6315,-4.6318,-4.6319,0,0,0,0,0,0,0,-4.6178,-4.6188,-4.6294,-4.6251,-4.6249,-4.6231,-4.6235,-4.6298,-4.6288,-4.6248,-4.6243,-4.6249,-4.6285,-4.6303,-4.6309,-4.6408,-4.6312,-4.6317,-4.632,-4.6322,-4.6596,-4.66,0,0,0,0,0,0,-4.6177,-4.6185,-4.6292,-4.6295,-4.6204,-4.6237,-4.6241,-4.627,-4.6287,-4.6286,-4.6252,-4.6245,-4.6296,-4.6303,-4.631,-4.6437,-4.6318,-4.6322,-4.6326,-4.6592,-4.6597,-4.6601,0,0,0,0,0,0,-4.6174,-4.6188,-4.6291,-4.6239,-4.625,-4.6243,-4.6276,-4.6273,-4.6291,-4.629,-4.6288,-4.6273,-4.6293,-4.6302,-4.6381,-4.6437,-4.6325,-4.633,-4.6587,-4.6594,-4.6599,-4.6692,0,0,0,0,0,0,-4.617,-4.6187,-4.6228,-4.624,-4.6254,-4.6361,-4.628,-4.6276,-4.63,-4.6292,-4.6309,-4.6308,-4.6291,-4.6373,-4.6386,-4.6443,-4.6334,-4.6582,-4.659,-4.6597,-4.6683,-4.67,-4.6715,0,0,0,0,0,-4.6165,-4.6252,-4.623,-4.6243,-4.6304,-4.6364,-4.6371,-4.635,-4.6305,-4.6346,-4.6346,-4.6307,-4.643,-4.6382,-4.6395,-4.6455,-4.6578,-4.6588,-4.6597,-4.6676,-4.6697,-4.6714,0,0,0,0,0,0,-4.6246,-4.6253,-4.6229,-4.6322,-4.6343,-4.6351,-4.6402,-4.6373,-4.6407,-4.6397,-4.637,-4.6374,-4.6458,-4.6464,-4.6411,-4.656,-4.6496,-4.6509,-4.6552,-4.6572,-4.6587,-4.6583,-4.6338,0,0,0,0,0,-4.6274,-4.6322,-4.6326,-4.6408,-4.642,-4.641,-4.6435,-4.6417,-4.6437,-4.6446,-4.6451,-4.6472,-4.6515,-4.6544,-4.6584,-4.6685,-4.6687,-4.6733,-4.6748,-4.6761,-4.6771,-4.6825,-4.6845,-4.6632,-4.6632,-4.6631,0,0,-4.6334,-4.6344,-4.6375,-4.6424,-4.6438,-4.6488,-4.6417,-4.6473,-4.651,-4.6454,-4.6528,-4.6533,-4.6555,-4.6645,-4.6685,-4.6653,-4.6831,-4.6773,-4.6783,-4.6786,-4.6836,-4.6857,-4.6875,-4.6638,-4.6637,-4.6636,0,0,-4.6467,-4.648,-4.6549,-4.6565,-4.6588,-4.658,-4.6597,-4.6611,-4.6612,-4.6686,-4.6645,-4.6689,-4.6764,-4.6781,-4.68,-4.6942,-4.6908,-4.6956,-4.7036,-4.7089,-4.7106,-4.712,-4.717,-4.7188,-4.6967,-4.6967,-4.6967,0,-4.6538,-4.6611,-4.6588,-4.6647,-4.667,-4.6623,-4.6692,-4.6709,-4.6744,-4.676,-4.6725,-4.6818,-4.683,-4.6923,-4.6958,-4.6975,-4.6993,-4.6953,-4.7105,-4.712,-4.7133,-4.718,-4.7199,-4.6973,-4.6972,-4.6972,-4.6971,0,-4.6697,-4.6749,-4.6802,-4.6837,-4.6866,-4.693,-4.6917,-4.6949,-4.6929,-4.6926,-4.7002,-4.7015,-4.7056,-4.7078,-4.7059,-4.7169,-4.7148,-4.711,-4.7044,-4.7159,-4.7203,-4.7221,-4.6981,-4.6979,-4.6977,-4.6976,0,0,-4.688,-4.6902,-4.6922,-4.6937,-4.6959,-4.6999,-4.7062,-4.7102,-4.713,-4.7156,-4.7207,-4.7273,-4.7238,-4.7259,-4.7242,-4.7289,-4.7399,-4.7244,-4.7244,-4.7271,-4.752,-4.7548,-4.7569,-4.7378,-4.7381,-4.7384,-4.7518,0,-4.7012,-4.7119,-4.7101,-4.7205,-4.7252,-4.7209,-4.7263,-4.7283,-4.7283,-4.7323,-4.7322,-4.7369,-4.7319,-4.7332,-4.7376,-4.7377,-4.7449,-4.7367,-4.7425,-4.7427,-4.7418,-4.7592,-4.7622,-4.7747,-4.7535,-4.7538,-4.754,0,-4.7179,-4.7211,-4.732,-4.7335,-4.7354,-4.7404,-4.744,-4.7479,-4.7501,-4.7497,-4.7522,-4.7497,-4.756,-4.7496,-4.7582,-4.7526,-4.755,-4.7554,-4.7558,-4.7561,-4.7489,-4.7598,-4.7787,-4.7805,-4.7567,-4.7565,-4.7563,0,-4.73,-4.7371,-4.7445,-4.746,-4.7479,-4.7515,-4.7525,-4.7543,-4.7569,-4.7601,-4.7617,-4.7657,-4.7678,-4.7709,-4.7695,-4.765,-4.7783,-4.7718,-4.7781,-4.7782,-4.781,-4.7808,-4.8003,-4.7828,-4.7828,-4.7827,-4.7827,0,-4.7448,-4.7516,-4.75,-4.7545,-4.762,-4.76,-4.7675,-4.7679,-4.7696,-4.7742,-4.7708,-4.7752,-4.7732,-4.7774,-4.7764,-4.7836,-4.7847,-4.7845,-4.7841,-4.7847,-4.7847,-4.786,-4.785,-4.7832,-4.7831,-4.783,-4.7829,0,-4.7595,-4.7587,-4.7664,-4.7677,-4.7682,-4.7737,-4.7748,-4.7791,-4.7788,-4.7847,-4.7859,-4.7855,-4.7904,-4.7894,-4.7947,-4.794,-4.8031,-4.8017,-4.8023,-4.8019,-4.8082,-4.8076,-4.8291,-4.8318,-4.8127,-4.8129,-4.8131,0,-4.7689,-4.774,-4.7758,-4.7787,-4.7799,-4.7845,-4.7871,-4.7854,-4.7882,-4.7912,-4.7951,-4.7997,-4.8032,-4.8111,-4.8113,-4.8154,-4.814,-4.8213,-4.8146,-4.815,-4.8139,-4.8136,-4.8141,-4.8225,-4.8228,-4.8229,-4.8231,0,-4.7856,-4.785,-4.7889,-4.7927,-4.7959,-4.7989,-4.8015,-4.804,-4.8024,-4.8059,-4.8108,-4.8135,-4.819,-4.8235,-4.8274,-4.8284,-4.8255,-4.8252,-4.8269,-4.8274,-4.8275,-4.8274,-4.8057,-4.8247,-4.8245,-4.8244,-4.8243,-4.8243,-4.7978,-4.8022,-4.8041,-4.8086,-4.8104,-4.813,-4.817,-4.8173,-4.8214,-4.8256,-4.8244,-4.83,-4.8321,-4.8369,-4.8385,-4.8428,-4.8401,-4.8425,-4.8431,-4.8437,-4.8444,-4.827,-4.8435,-4.8435,-4.8434,-4.8434,-4.8434,0,-4.8142,-4.8153,-4.8195,-4.8232,-4.8268,-4.8239,-4.8266,-4.8298,-4.8347,-4.837,-4.8405,-4.8462,-4.8506,-4.8512,-4.8554,-4.8588,-4.8576,-4.8599,-4.8596,-4.8599,-4.8466,-4.8447,-4.8609,-4.8609,-4.8609,-4.8609,-4.8608,-4.8608,-4.8232,-4.8304,-4.83,-4.8381,-4.8391,-4.8445,-4.8464,-4.8487,-4.8505,-4.8569,-4.8606,-4.861,-4.8626,-4.8669,-4.8708,-4.8709,-4.8725,-4.8754,-4.875,-4.8625,-4.8608,-4.8591,-4.8573,-4.8758,-4.8758,-4.8878,-4.8879,-4.888]},{"header":{"parameterUnit":"m.s-1","parameterCategory":1,"la1":30.2991,"la2":30.254,"lo1":-89.0895,"lo2":-89.0444,"dy":0.0017,"dx":0.0017,"nx":28,"ny":28,"refTime":"2025-04-18T09:00:00:Z","depth":0,"parameterNumber":3,"parameterNumberName":"V-component_of_WINDS"},"data":[0,0,0,0,0,0,0,0,0,0,0,0,0,0,0,0,0,0,0,0,0,0,0,0,0,0,0,0,0,0,0,0,0,0,0,0,0,0,0,0,0,0,0,0,0,0,0,0,0,0,0,0,0,0,0,0,0,0,2.1069,2.1069,0,2.1079,2.1079,2.1079,2.1087,2.1087,2.1087,2.1087,2.1096,2.1096,2.1096,0,0,0,0,0,0,0,0,0,0,0,0,0,2.1056,2.1057,2.1069,2.1069,2.107,2.1079,2.1079,2.1079,2.1087,2.1087,2.1087,2.1087,2.1096,2.1096,2.1096,0,0,0,0,0,0,0,0,0,0,0,0,0,2.1064,2.1057,2.1069,2.1075,2.1075,2.1079,2.1079,2.1079,2.1087,2.1087,2.1087,2.1087,2.1096,2.1096,2.1096,2.1095,0,0,2.1097,2.1097,0,0,0,0,0,0,0,0,2.1063,2.1064,2.1074,2.1074,2.1075,2.1082,2.1078,2.1085,2.1087,2.1082,2.1087,2.1087,2.1091,2.1092,2.1093,2.1096,2.1096,2.1097,2.1097,2.1097,2.1097,0,0,0,0,0,0,0,2.1063,2.1064,2.1073,2.1074,2.1075,2.1076,2.1077,2.1079,2.1086,2.1083,2.1083,2.1084,2.1091,2.1093,2.1093,2.1096,2.1097,2.1097,2.1097,2.1097,2.1099,2.1099,0,0,0,0,0,0,2.1061,2.1063,2.1073,2.1073,2.1069,2.1076,2.1078,2.108,2.1086,2.1087,2.1084,2.1085,2.1092,2.1093,2.1094,2.1094,2.1097,2.1097,2.1097,2.1099,2.1099,2.1099,0,0,0,0,0,0,2.1061,2.1062,2.1072,2.1069,2.107,2.1076,2.1078,2.108,2.1081,2.1087,2.1088,2.1085,2.1093,2.1093,2.1095,2.1094,2.1097,2.1098,2.1099,2.1099,2.1099,2.1093,0,0,0,0,0,0,2.1061,2.1062,2.1062,2.1068,2.107,2.1074,2.1078,2.108,2.1082,2.1082,2.1088,2.1089,2.1093,2.1095,2.1095,2.1094,2.1098,2.1099,2.1099,2.1099,2.1093,2.1093,2.1092,0,0,0,0,0,2.106,2.106,2.1062,2.1063,2.107,2.1074,2.1075,2.108,2.1082,2.1082,2.1085,2.1089,2.1094,2.1095,2.1095,2.1095,2.1099,2.1099,2.1099,2.1094,2.1093,2.1092,0,0,0,0,0,0,2.1052,2.1061,2.1063,2.1065,2.1069,2.1075,2.1075,2.1079,2.1082,2.1082,2.1087,2.1089,2.109,2.1092,2.1093,2.1094,2.1097,2.1097,2.1093,2.1092,2.1092,2.1091,2.1098,0,0,0,0,0,2.1051,2.1053,2.106,2.1061,2.1063,2.1069,2.107,2.1074,2.1078,2.1079,2.1083,2.1087,2.1089,2.1091,2.1093,2.1094,2.1095,2.1094,2.1093,2.1092,2.1092,2.1093,2.1093,2.1098,2.1098,2.1098,0,0,2.1048,2.1052,2.1054,2.1059,2.1063,2.1065,2.107,2.1072,2.1074,2.108,2.1082,2.1085,2.1089,2.109,2.1091,2.1092,2.1091,2.1092,2.1092,2.1092,2.1093,2.1093,2.1092,2.1098,2.1098,2.1098,0,0,2.1043,2.1047,2.1048,2.1052,2.1057,2.1061,2.1061,2.1067,2.107,2.1072,2.1077,2.1079,2.1083,2.1086,2.1088,2.1085,2.1088,2.1085,2.1082,2.1083,2.1083,2.1082,2.1082,2.1082,2.1085,2.1085,2.1085,0,2.1038,2.1043,2.1048,2.1051,2.1053,2.1059,2.106,2.1063,2.1069,2.107,2.1072,2.1078,2.1081,2.1083,2.1082,2.1084,2.1084,2.1085,2.1082,2.1082,2.1082,2.1081,2.1081,2.1085,2.1085,2.1085,2.1085,0,2.1037,2.104,2.104,2.1046,2.1048,2.105,2.1056,2.1058,2.1061,2.1065,2.1067,2.1071,2.1075,2.1076,2.1079,2.1078,2.1079,2.1082,2.1084,2.1081,2.1081,2.108,2.1085,2.1085,2.1085,2.1085,0,0,2.1027,2.1037,2.1037,2.104,2.1047,2.1049,2.1051,2.1055,2.1057,2.106,2.1062,2.1066,2.1068,2.1071,2.1074,2.1074,2.1073,2.1077,2.1077,2.1076,2.1073,2.1071,2.1071,2.1075,2.1075,2.1075,2.1073,0,2.1024,2.1029,2.1034,2.1037,2.104,2.1045,2.1047,2.1051,2.1055,2.1057,2.1061,2.1064,2.1066,2.1068,2.1069,2.1073,2.1072,2.1073,2.1076,2.1076,2.1076,2.1071,2.1069,2.1067,2.1073,2.1073,2.1073,0,2.1021,2.1026,2.1029,2.1036,2.1037,2.1038,2.1043,2.1045,2.105,2.1053,2.1056,2.1059,2.1061,2.1064,2.1067,2.1067,2.1069,2.1071,2.1071,2.1072,2.1074,2.1072,2.1067,2.1067,2.1072,2.1072,2.1072,0,2.1015,2.1021,2.1024,2.1027,2.1034,2.1035,2.1039,2.1043,2.1046,2.105,2.1051,2.1055,2.1057,2.106,2.1064,2.1066,2.1067,2.107,2.1069,2.1069,2.1069,2.1069,2.1065,2.107,2.107,2.107,2.107,0,2.1011,2.1013,2.1022,2.1023,2.1025,2.1031,2.1033,2.1037,2.1041,2.1044,2.1048,2.105,2.1056,2.1059,2.1062,2.1064,2.1065,2.1067,2.1068,2.1067,2.1067,2.1069,2.1069,2.107,2.107,2.107,2.107,0,2.1005,2.1011,2.1014,2.1021,2.1023,2.1025,2.1031,2.1032,2.1036,2.1039,2.104,2.1046,2.105,2.1055,2.1059,2.1062,2.1063,2.1065,2.1062,2.1063,2.1062,2.1062,2.1059,2.1059,2.1063,2.1063,2.1063,0,2.1002,2.1004,2.1012,2.1014,2.1017,2.1021,2.1023,2.1029,2.1032,2.1037,2.1038,2.1042,2.1046,2.1051,2.1055,2.1059,2.1061,2.1059,2.1061,2.106,2.1061,2.1061,2.1061,2.1059,2.1059,2.1059,2.1059,0,2.0997,2.1,2.1004,2.1009,2.1013,2.1017,2.1021,2.1022,2.1029,2.1031,2.1035,2.1038,2.1043,2.1047,2.1051,2.1054,2.1058,2.1058,2.1058,2.1057,2.1056,2.1057,2.1061,2.1058,2.1058,2.1058,2.1058,2.1058,2.0993,2.0995,2.1001,2.1005,2.1009,2.1013,2.1015,2.102,2.1023,2.1029,2.1032,2.1035,2.104,2.1046,2.1049,2.1052,2.1053,2.1053,2.1053,2.1053,2.1053,2.1055,2.1053,2.1053,2.1053,2.1053,2.1053,0,2.0989,2.0993,2.0997,2.1003,2.1007,2.101,2.1015,2.1017,2.1021,2.1025,2.1029,2.1033,2.1037,2.1042,2.1046,2.1047,2.1049,2.1048,2.1048,2.1049,2.1052,2.1051,2.1047,2.1047,2.1047,2.1047,2.1047,2.1047,2.0987,2.0991,2.0994,2.1,2.1004,2.1008,2.1011,2.1014,2.1018,2.1023,2.1027,2.103,2.1035,2.1039,2.1043,2.1044,2.1045,2.1044,2.1046,2.1048,2.1049,2.1049,2.1049,2.1044,2.1044,2.1043,2.1043,2.1043]}]]